When you browse on this site, cookies collect data to enhance your experience and personalize the content and advertising you see.
Visit our Privacy Policy to learn more. By continuing to use the site, you agree to this use of cookies and data.
  • In United Kingdom
  • List of Countries
  • For 7 days
  • Water Temperature
  • Satellite Maps
  • Weather Map
  • Weather Widgets
  • user-avatar
    Login

    Hourly Weather Or Yehuda

    Today, 24 March, Sunday

    Time Temperature Precipitation Wind Pressure Humidity
    00:00 +17°C° 0 mm 2 mps 752 mmHg 77%
    01:00 +17°C° 0 mm 2 mps 751 mmHg 76%
    02:00 +18°C° 0 mm 3 mps 751 mmHg 69%
    03:00 +17°C° 0.1 mm 4 mps 750 mmHg 70%
    04:00 +17°C° 0.1 mm 4 mps 750 mmHg 70%
    05:00 +16°C° 0.1 mm 5 mps 750 mmHg 71%
    06:00 +16°C° 0.1 mm 5 mps 750 mmHg 66%
    07:00 +18°C° 0.1 mm 4 mps 750 mmHg 61%
    08:00 +19°C° 0.1 mm 4 mps 750 mmHg 55%
    09:00 +19°C° 0.1 mm 4 mps 750 mmHg 52%
    10:00 +19°C° 0.1 mm 4 mps 750 mmHg 49%
    11:00 +20°C° 0.1 mm 3 mps 750 mmHg 45%
    12:00 +19°C° 0.1 mm 3 mps 750 mmHg 48%
    13:00 +19°C° 0.1 mm 3 mps 750 mmHg 52%
    14:00 +19°C° 0.1 mm 3 mps 749 mmHg 55%
    15:00 +18°C° 0 mm 3 mps 749 mmHg 56%
    16:00 +18°C° 0 mm 4 mps 749 mmHg 56%
    17:00 +18°C° 0 mm 4 mps 749 mmHg 57%
    18:00 +17°C° 0 mm 3 mps 749 mmHg 62%
    19:00 +16°C° 0 mm 3 mps 749 mmHg 66%
    20:00 +15°C° 0 mm 2 mps 749 mmHg 71%
    21:00 +15°C° 0.4 mm 2 mps 750 mmHg 73%
    22:00 +15°C° 0.4 mm 2 mps 750 mmHg 75%
    23:00 +15°C° 0.4 mm 2 mps 750 mmHg 76%

    Tomorrow, 25 March, Monday

    Time Temperature Precipitation Wind Pressure Humidity
    00:00 +14°C° 1 mm 2 mps 750 mmHg 77%
    01:00 +14°C° 1 mm 2 mps 749 mmHg 77%
    02:00 +14°C° 1 mm 2 mps 749 mmHg 77%
    03:00 +14°C° 0.6 mm 2 mps 749 mmHg 77%
    04:00 +14°C° 0.6 mm 2 mps 749 mmHg 77%
    05:00 +13°C° 0.6 mm 2 mps 749 mmHg 76%
    06:00 +14°C° 0.2 mm 2 mps 749 mmHg 71%
    07:00 +14°C° 0.2 mm 2 mps 750 mmHg 66%
    08:00 +15°C° 0.2 mm 2 mps 750 mmHg 61%
    09:00 +16°C° 0 mm 3 mps 751 mmHg 56%
    10:00 +17°C° 0 mm 4 mps 751 mmHg 51%
    11:00 +16°C° 0 mm 5 mps 751 mmHg 46%
    12:00 +16°C° 0.1 mm 6 mps 751 mmHg 47%
    13:00 +16°C° 0.1 mm 6 mps 752 mmHg 48%
    14:00 +16°C° 0.1 mm 7 mps 752 mmHg 49%
    15:00 +16°C° 0 mm 6 mps 752 mmHg 51%
    16:00 +15°C° 0 mm 5 mps 752 mmHg 54%
    17:00 +15°C° 0 mm 5 mps 753 mmHg 57%
    18:00 +14°C° 0 mm 4 mps 753 mmHg 58%
    19:00 +13°C° 0 mm 3 mps 754 mmHg 59%
    20:00 +14°C° 0 mm 2 mps 754 mmHg 61%
    21:00 +14°C° 0 mm 2 mps 755 mmHg 61%
    22:00 +14°C° 0 mm 2 mps 755 mmHg 61%
    23:00 +13°C° 0 mm 2 mps 755 mmHg 61%

    Day after tomorrow, 26 March, Tuesday

    Time Temperature Precipitation Wind Pressure Humidity
    00:00 +12°C° 0 mm 3 mps 755 mmHg 63%
    01:00 +12°C° 0 mm 3 mps 756 mmHg 64%
    02:00 +12°C° 0 mm 3 mps 756 mmHg 65%
    03:00 +12°C° 0 mm 3 mps 756 mmHg 66%
    04:00 +12°C° 0 mm 3 mps 756 mmHg 67%
    05:00 +12°C° 0 mm 4 mps 756 mmHg 68%
    06:00 +12°C° 0 mm 4 mps 757 mmHg 65%
    07:00 +13°C° 0 mm 4 mps 757 mmHg 62%
    08:00 +14°C° 0 mm 4 mps 758 mmHg 60%
    09:00 +15°C° 0 mm 4 mps 758 mmHg 56%
    10:00 +17°C° 0 mm 4 mps 758 mmHg 53%
    11:00 +17°C° 0 mm 5 mps 758 mmHg 50%
    12:00 +17°C° 0 mm 5 mps 758 mmHg 51%
    13:00 +17°C° 0 mm 5 mps 758 mmHg 51%
    14:00 +17°C° 0 mm 5 mps 757 mmHg 52%
    15:00 +17°C° 0 mm 5 mps 757 mmHg 54%
    16:00 +17°C° 0 mm 4 mps 758 mmHg 56%
    17:00 +17°C° 0 mm 4 mps 758 mmHg 57%
    18:00 +16°C° 0 mm 3 mps 758 mmHg 61%
    19:00 +15°C° 0 mm 2 mps 759 mmHg 64%
    20:00 +15°C° 0 mm 2 mps 759 mmHg 67%
    21:00 +14°C° 0 mm 2 mps 759 mmHg 68%
    22:00 +14°C° 0 mm 2 mps 759 mmHg 69%
    23:00 +13°C° 0 mm 3 mps 759 mmHg 70%

    27 March, Wednesday

    Time Temperature Precipitation Wind Pressure Humidity
    00:00 +13°C° 0 mm 3 mps 759 mmHg 71%
    01:00 +13°C° 0 mm 3 mps 759 mmHg 72%
    02:00 +13°C° 0 mm 4 mps 759 mmHg 74%
    03:00 +13°C° 0 mm 4 mps 759 mmHg 74%
    04:00 +13°C° 0 mm 4 mps 759 mmHg 74%
    05:00 +13°C° 0 mm 4 mps 760 mmHg 75%
    06:00 +14°C° 0 mm 4 mps 760 mmHg 71%
    07:00 +15°C° 0 mm 4 mps 760 mmHg 67%
    08:00 +17°C° 0 mm 4 mps 761 mmHg 63%
    09:00 +17°C° 0 mm 5 mps 761 mmHg 61%
    10:00 +17°C° 0 mm 6 mps 761 mmHg 58%
    11:00 +19°C° 0 mm 6 mps 761 mmHg 55%
    12:00 +19°C° 0.1 mm 6 mps 761 mmHg 58%
    13:00 +18°C° 0.1 mm 7 mps 761 mmHg 61%
    14:00 +18°C° 0.1 mm 7 mps 761 mmHg 63%
    15:00 +19°C° 0 mm 6 mps 761 mmHg 66%
    16:00 +17°C° 0 mm 5 mps 761 mmHg 68%
    17:00 +18°C° 0 mm 4 mps 761 mmHg 71%
    18:00 +17°C° 0 mm 3 mps 761 mmHg 75%
    19:00 +16°C° 0 mm 3 mps 762 mmHg 78%
    20:00 +16°C° 0 mm 2 mps 762 mmHg 82%
    21:00 +15°C° 0 mm 2 mps 762 mmHg 82%
    22:00 +15°C° 0 mm 2 mps 762 mmHg 81%
    23:00 +14°C° 0 mm 3 mps 762 mmHg 80%

    28 March, Thursday

    Time Temperature Precipitation Wind Pressure Humidity
    00:00 +14°C° 0 mm 3 mps 762 mmHg 81%
    01:00 +14°C° 0 mm 3 mps 762 mmHg 83%
    02:00 +13°C° 0 mm 3 mps 762 mmHg 84%
    03:00 +13°C° 0 mm 3 mps 762 mmHg 84%
    04:00 +13°C° 0 mm 3 mps 762 mmHg 85%
    05:00 +13°C° 0 mm 3 mps 762 mmHg 85%
    06:00 +14°C° 0 mm 3 mps 763 mmHg 80%
    07:00 +16°C° 0 mm 3 mps 763 mmHg 74%
    08:00 +17°C° 0 mm 3 mps 763 mmHg 69%
    09:00 +18°C° 0 mm 3 mps 763 mmHg 64%
    10:00 +19°C° 0 mm 3 mps 763 mmHg 60%
    11:00 +20°C° 0 mm 3 mps 763 mmHg 55%
    12:00 +20°C° 0 mm 4 mps 762 mmHg 56%
    13:00 +20°C° 0 mm 4 mps 762 mmHg 56%
    14:00 +21°C° 0 mm 4 mps 761 mmHg 57%
    15:00 +20°C° 0 mm 4 mps 761 mmHg 61%
    16:00 +19°C° 0 mm 3 mps 761 mmHg 65%
    17:00 +19°C° 0 mm 3 mps 761 mmHg 69%
    18:00 +18°C° 0 mm 3 mps 761 mmHg 73%
    19:00 +17°C° 0 mm 2 mps 761 mmHg 77%
    20:00 +16°C° 0 mm 1 mps 761 mmHg 81%
    21:00 +16°C° 0 mm 1 mps 761 mmHg 79%
    22:00 +16°C° 0 mm 2 mps 760 mmHg 77%
    23:00 +16°C° 0 mm 2 mps 760 mmHg 75%

    29 March, Friday

    Time Temperature Precipitation Wind Pressure Humidity
    00:00 +16°C° 0 mm 1 mps 760 mmHg 71%
    01:00 +16°C° 0 mm 1 mps 759 mmHg 66%
    02:00 +16°C° 0 mm 1 mps 759 mmHg 61%
    03:00 +16°C° 0 mm 1 mps 759 mmHg 59%
    04:00 +16°C° 0 mm 1 mps 759 mmHg 57%
    05:00 +16°C° 0 mm 1 mps 759 mmHg 55%
    06:00 +18°C° 0 mm 1 mps 759 mmHg 52%
    07:00 +18°C° 0 mm 2 mps 759 mmHg 49%
    08:00 +18°C° 0 mm 3 mps 760 mmHg 46%
    09:00 +19°C° 0 mm 3 mps 759 mmHg 46%
    10:00 +20°C° 0 mm 2 mps 759 mmHg 46%
    11:00 +21°C° 0 mm 2 mps 759 mmHg 45%
    12:00 +21°C° 0 mm 3 mps 758 mmHg 47%
    13:00 +21°C° 0 mm 4 mps 757 mmHg 48%
    14:00 +21°C° 0 mm 4 mps 756 mmHg 49%
    15:00 +22°C° 0 mm 5 mps 755 mmHg 48%
    16:00 +22°C° 0 mm 5 mps 755 mmHg 47%
    17:00 +22°C° 0 mm 5 mps 754 mmHg 46%
    18:00 +22°C° 0 mm 5 mps 754 mmHg 46%
    19:00 +21°C° 0 mm 5 mps 754 mmHg 47%
    20:00 +20°C° 0 mm 5 mps 754 mmHg 47%
    21:00 +20°C° 0 mm 6 mps 753 mmHg 47%
    22:00 +20°C° 0 mm 7 mps 752 mmHg 47%
    23:00 +21°C° 0 mm 8 mps 751 mmHg 47%
    Show more